Stations météo

réclame
Mon MeteoGroup
Northolt, Grande-Bretagne (3672): Température de l'air & dewpoint: 05.12.2019 12:00:00 - 11.12.2019 12:00:00 (GMT)Northolt, Grande-Bretagne (3672): Température de l'air -20cm & Température de l'air -100cm: 05.12.2019 12:00:00 - 11.12.2019 12:00:00 (GMT)Northolt, Grande-Bretagne (3672): Vitesse du vent & gusts: 05.12.2019 12:00:00 - 11.12.2019 12:00:00 (GMT)Northolt, Grande-Bretagne (3672): Direction du vent: 05.12.2019 12:00:00 - 11.12.2019 12:00:00 (GMT)Northolt, Grande-Bretagne (3672): reduced air pressure: 05.12.2019 12:00:00 - 11.12.2019 12:00:00 (GMT)Northolt, Grande-Bretagne (3672): visibility: 05.12.2019 12:00:00 - 11.12.2019 12:00:00 (GMT)Northolt, Grande-Bretagne (3672): Quantités de précipitations: 05.12.2019 12:00:00 - 11.12.2019 12:00:00 (GMT)
Date & Time tt [°C] td [°C] tt -20cm [°C] tt -100cm [°C] ff [km/h] ff [knt] fx [km/h] fx [knt] dd ppp [hPa] vv [km] rr [mm]
11.12.2019 12:00:00 7,6 4,4 - - 15 8 - - SSW 1003,6 10 0,0
11.12.2019 11:00:00 7,5 4,4 - - 13 7 - - SW 1004,7 10 0,0
11.12.2019 10:00:00 5,8 3,8 - - 11 6 - - SW 1005,9 10 0,0
11.12.2019 09:00:00 3,2 2,4 7,2 9,4 9 5 - - SW 1006,6 10 0,0
11.12.2019 08:00:00 3,0 2,2 - - 4 2 - - SSW 1007,1 10 0,0
11.12.2019 07:00:00 2,7 2,2 - - 8 4 - - S 1007,5 10 0,0
11.12.2019 06:00:00 2,7 2,1 - - 4 2 - - SSE 1007,7 10 0,0
11.12.2019 05:00:00 3,4 2,4 - - 5 3 - - WSW 1008,2 10 0,0
11.12.2019 04:00:00 4,0 3,0 - - 9 5 - - WSW 1008,5 10 0,0
11.12.2019 03:00:00 4,3 3,3 - - 13 7 - - SW 1008,7 22 0,0
11.12.2019 02:00:00 5,1 3,6 - - 5 3 - - SW 1008,9 30 0,0
11.12.2019 01:00:00 6,1 3,8 - - 13 7 - - WSW 1008,6 10 0,0
11.12.2019 00:00:00 7,2 4,8 - - 13 7 - - WSW 1008,3 10 0,0
10.12.2019 23:00:00 8,3 6,0 - - 18 10 - - W 1007,3 30 0,0
10.12.2019 22:00:00 8,9 6,3 - - 28 15 - - W 1006,6 10 0,0
10.12.2019 21:00:00 9,3 7,2 - - 31 17 61 33 W 1005,6 10 0,6
10.12.2019 20:00:00 11,4 10,2 - - 34 18 55 30 WSW 1003,9 10 1,8
10.12.2019 19:00:00 11,2 10,2 - - 39 21 55 30 SSW 1003,1 6 0,2
10.12.2019 18:00:00 10,7 9,8 - - 31 17 57 31 SSW 1004,2 7 0,0
10.12.2019 17:00:00 10,3 9,1 - - 34 18 54 29 SSW 1005,2 7 0,0
10.12.2019 16:00:00 10,2 8,8 - - 31 17 50 27 SSW 1006,8 10 0,0
10.12.2019 15:00:00 9,5 8,6 - - 31 17 52 28 SSW 1008,3 8 0,2
10.12.2019 14:00:00 9,1 8,1 - - 28 15 52 28 SSW 1009,9 10 0,0
10.12.2019 13:00:00 9,0 7,8 - - 29 16 46 25 SSW 1011,4 10 0,2
10.12.2019 12:00:00 8,8 7,5 - - 28 15 - - SSW 1013,3 10 0,2
10.12.2019 11:00:00 8,9 7,2 - - 24 13 - - SSW 1014,9 10 0,2
10.12.2019 10:00:00 9,1 6,6 - - 26 14 - - SSW 1016,2 10 0,0
10.12.2019 09:00:00 8,1 5,7 7,2 9,4 24 13 - - SSW 1017,6 10 0,0
10.12.2019 08:00:00 6,1 4,1 - - 11 6 - - S 1019,0 10 0,0
10.12.2019 07:00:00 4,3 2,8 - - 13 7 - - SSE 1019,8 10 0,0
10.12.2019 06:00:00 2,0 0,9 - - 9 5 - - S 1021,1 20 0,0
10.12.2019 05:00:00 0,9 0,4 - - 5 3 - - S 1022,6 10 0,0
10.12.2019 04:00:00 0,2 -0,2 - - 4 2 - - SSE 1023,5 10 0,0
10.12.2019 03:00:00 -1,0 -1,5 - - 4 2 - - SSE 1024,3 15 0,0
10.12.2019 02:00:00 -1,3 -1,9 - - 4 2 - - S 1024,4 10 0,0
10.12.2019 01:00:00 -1,5 -2,3 - - 2 1 - - W 1024,8 10 0,0
10.12.2019 00:00:00 0,2 -0,5 - - 5 3 - - SSE 1025,2 10 0,0
09.12.2019 23:00:00 -0,4 -1,8 - - 2 1 - - WNW 1025,6 18 0,0
09.12.2019 22:00:00 1,4 -0,2 - - 4 2 - - S 1025,1 10 0,0
09.12.2019 21:00:00 1,6 -0,9 - - 0 0 - - N 1024,8 10 0,0
09.12.2019 20:00:00 3,1 0,3 - - 4 2 - - W 1024,2 10 0,0
09.12.2019 19:00:00 4,2 0,4 - - 5 3 - - WNW 1023,2 10 0,0
09.12.2019 18:00:00 4,4 -0,8 - - 5 3 - - WNW 1021,8 10 0,0
09.12.2019 17:00:00 5,6 -0,7 - - 15 8 - - NNW 1020,6 10 0,0
09.12.2019 16:00:00 7,4 0,3 - - 24 13 - - NNW 1019,0 10 0,0
09.12.2019 15:00:00 8,3 0,3 - - 29 16 46 25 NNW 1017,5 10 0,0
09.12.2019 14:00:00 9,0 1,7 - - 28 15 55 30 NNW 1015,6 10 0,0
09.12.2019 13:00:00 9,0 1,7 - - 39 21 59 32 NNW 1013,6 10 0,0
09.12.2019 12:00:00 9,1 1,7 - - 34 18 59 32 NNW 1012,1 10 0,0
09.12.2019 11:00:00 8,6 1,7 - - 39 21 65 35 NNW 1010,4 50 0,0
09.12.2019 10:00:00 8,2 2,7 - - 35 19 54 29 NNW 1008,2 10 0,0
09.12.2019 09:00:00 7,9 3,0 7,7 9,4 37 20 59 32 NNW 1005,7 10 0,0
09.12.2019 08:00:00 7,7 3,1 - - 37 20 59 32 NNW 1002,8 10 0,0
09.12.2019 07:00:00 8,1 4,6 - - 31 17 52 28 NW 1000,1 10 0,2
09.12.2019 06:00:00 7,8 5,5 - - 31 17 52 28 NW 997,3 35 0,0
09.12.2019 05:00:00 8,4 5,1 - - 29 16 - - WNW 994,1 40 0,0
09.12.2019 04:00:00 8,0 4,2 - - 21 11 - - W 992,6 30 0,0
09.12.2019 03:00:00 7,4 3,6 - - 22 12 - - W 992,5 10 0,0
09.12.2019 02:00:00 7,2 3,5 - - 29 16 54 29 WNW 991,9 10 0,0
09.12.2019 01:00:00 7,4 5,2 - - 28 15 - - W 990,9 30 0,2
09.12.2019 00:00:00 7,0 4,1 - - 16 9 - - SSW 991,0 10 0,0
08.12.2019 23:00:00 6,6 3,6 - - 24 13 - - SW 992,5 10 0,0
08.12.2019 22:00:00 6,5 2,4 - - 26 14 48 26 WSW 994,1 30 0,0
08.12.2019 21:00:00 6,6 2,3 - - 31 17 48 26 WSW 995,3 10 0,0
08.12.2019 20:00:00 6,9 2,3 - - 31 17 52 28 WSW 996,3 10 0,0
08.12.2019 19:00:00 6,9 3,0 - - 26 14 - - WSW 997,0 10 0,0
08.12.2019 18:00:00 7,0 2,9 - - 31 17 54 29 W 997,6 10 0,0
08.12.2019 17:00:00 7,0 3,3 - - 28 15 - - WSW 998,3 10 0,0
08.12.2019 16:00:00 7,3 2,7 - - 31 17 65 35 WSW 998,9 10 0,0
08.12.2019 15:00:00 9,6 3,4 - - 31 17 54 29 WSW 999,0 10 0,0
08.12.2019 14:00:00 9,8 2,5 - - 37 20 61 33 W 999,3 10 0,0
08.12.2019 13:00:00 10,5 3,7 - - 31 17 57 31 WSW 1000,3 10 0,0
08.12.2019 12:00:00 10,5 4,0 - - 42 23 65 35 W 1000,7 10 0,0
08.12.2019 11:00:00 10,3 5,3 - - 31 17 54 29 WSW 1001,3 10 0,0
08.12.2019 10:00:00 10,0 5,1 - - 24 13 - - W 1001,5 10 0,0
08.12.2019 09:00:00 9,7 5,6 7,7 9,4 29 16 - - W 1001,0 10 0,0
08.12.2019 08:00:00 9,5 5,9 - - 24 13 46 25 W 1000,2 10 0,0
08.12.2019 07:00:00 10,1 5,9 - - 34 18 57 31 W 999,9 10 0,0
08.12.2019 06:00:00 11,2 6,6 - - 41 22 65 35 W 999,3 26 0,2
08.12.2019 05:00:00 11,7 10,5 - - 29 16 48 26 WSW 998,9 7 0,0
08.12.2019 04:00:00 11,1 9,8 - - 29 16 46 25 SW 999,7 10 0,0
08.12.2019 03:00:00 10,3 9,3 - - 28 15 46 25 SW 1000,5 11 1,2
08.12.2019 02:00:00 10,2 8,9 - - 26 14 50 27 SW 1002,5 2,4 1,4
08.12.2019 01:00:00 11,1 8,2 - - 34 18 54 29 SW 1003,4 10 0,0
08.12.2019 00:00:00 10,9 8,7 - - 26 14 52 28 SW 1005,3 28 0,0
07.12.2019 23:00:00 10,9 8,2 - - 29 16 48 26 SW 1006,9 10 0,0
07.12.2019 22:00:00 10,5 7,7 - - 24 13 - - SW 1008,5 10 0,0
07.12.2019 21:00:00 10,3 7,4 - - 21 11 - - SW 1009,4 10 0,0
07.12.2019 20:00:00 10,1 6,9 - - 22 12 - - SW 1010,6 10 0,0
07.12.2019 19:00:00 10,0 6,3 - - 22 12 - - WSW 1011,6 10 0,0
07.12.2019 18:00:00 9,9 6,1 - - 18 10 - - SW 1012,4 10 0,0
07.12.2019 17:00:00 10,1 5,6 - - 18 10 - - WSW 1012,6 35 0,0
07.12.2019 16:00:00 10,4 5,5 - - 21 11 - - WSW 1012,9 10 0,0
07.12.2019 15:00:00 10,6 5,7 - - 15 8 - - WSW 1013,1 10 0,0
07.12.2019 14:00:00 10,5 6,0 - - 18 10 - - WSW 1013,3 10 0,0
07.12.2019 13:00:00 10,7 6,2 - - 15 8 - - WSW 1013,9 10 0,0
07.12.2019 12:00:00 10,3 6,0 - - 18 10 - - W 1014,5 10 0,0
07.12.2019 11:00:00 9,8 6,5 - - 15 8 - - WSW 1014,5 10 0,0
07.12.2019 10:00:00 8,8 6,0 - - 13 7 - - WSW 1014,6 10 0,0
07.12.2019 09:00:00 8,1 5,7 7,2 9,4 15 8 - - WSW 1014,4 10 0,0
07.12.2019 08:00:00 7,6 5,4 - - 13 7 - - WSW 1014,0 10 0,0
07.12.2019 07:00:00 6,9 5,0 - - 8 4 - - WSW 1013,7 10 0,0
07.12.2019 06:00:00 7,2 5,4 - - 13 7 - - WSW 1012,6 25 0,0
07.12.2019 05:00:00 7,6 5,3 - - 11 6 - - WSW 1012,0 10 0,0
07.12.2019 04:00:00 8,6 5,2 - - 11 6 - - W 1011,5 35 0,0
07.12.2019 03:00:00 8,9 5,8 - - 15 8 - - W 1011,1 30 0,0
07.12.2019 02:00:00 8,8 5,8 - - 15 8 - - WSW 1010,8 10 0,0
07.12.2019 01:00:00 8,5 5,8 - - 26 14 - - W 1009,7 10 0,0
07.12.2019 00:00:00 8,1 5,9 - - 24 13 - - WSW 1009,7 27 0,0
06.12.2019 23:00:00 7,7 5,6 - - 18 10 - - WSW 1009,1 28 0,0
06.12.2019 22:00:00 8,3 5,7 - - 16 9 - - W 1008,3 29 0,0
06.12.2019 21:00:00 9,6 5,7 - - 22 12 - - W 1007,0 45 0,0
06.12.2019 20:00:00 10,0 6,9 - - 21 11 - - W 1006,3 10 0,0
06.12.2019 19:00:00 10,1 7,1 - - 18 10 - - W 1005,1 10 0,0
06.12.2019 18:00:00 10,4 7,4 - - 26 14 - - W 1003,6 10 0,0
06.12.2019 17:00:00 10,6 8,4 - - 29 16 50 27 W 1002,8 10 0,0
06.12.2019 16:00:00 11,0 8,9 - - 34 18 52 28 W 1001,6 10 1,0
06.12.2019 15:00:00 11,7 9,0 - - 26 14 59 32 WSW 1001,7 10 0,0
06.12.2019 14:00:00 12,7 8,7 - - 34 18 50 27 WSW 1002,2 10 0,2
06.12.2019 13:00:00 12,9 10,5 - - 29 16 50 27 WSW 1002,6 10 0,0
06.12.2019 12:00:00 12,9 10,9 - - 31 17 48 26 WSW 1003,3 10 0,0
06.12.2019 11:00:00 12,6 11,0 - - 28 15 - - WSW 1004,4 10 0,0
06.12.2019 10:00:00 12,0 11,1 - - 22 12 - - WSW 1005,2 10 0,4
06.12.2019 09:00:00 11,9 10,8 6,5 9,7 28 15 - - WSW 1005,7 5 0,0
06.12.2019 08:00:00 11,5 10,7 - - 21 11 - - SW 1005,9 10 0,8
06.12.2019 07:00:00 11,3 10,5 - - 21 11 - - SW 1006,8 10 2,2
06.12.2019 06:00:00 11,5 10,1 - - 24 13 - - SW 1007,4 10 0,0
06.12.2019 05:00:00 11,1 9,9 - - 21 11 - - WSW 1008,4 10 0,2
06.12.2019 04:00:00 10,7 9,9 - - 18 10 - - SW 1008,9 12 0,8
06.12.2019 03:00:00 10,6 9,7 - - 22 12 - - SW 1009,5 11 0,2
06.12.2019 02:00:00 10,4 9,4 - - 21 11 - - WSW 1010,2 10 0,2
06.12.2019 01:00:00 10,1 9,1 - - 28 15 46 25 SW 1010,6 10 0,2
06.12.2019 00:00:00 10,0 8,5 - - 26 14 - - WSW 1011,5 20 0,2
05.12.2019 23:00:00 10,1 7,5 - - 24 13 46 25 WSW 1012,4 26 0,0
05.12.2019 22:00:00 9,9 7,0 - - 26 14 - - SW 1013,1 10 0,0
05.12.2019 21:00:00 9,9 6,4 - - 22 12 - - WSW 1013,9 29 0,0
05.12.2019 20:00:00 9,7 6,3 - - 28 15 - - WSW 1014,5 10 0,0
05.12.2019 19:00:00 9,5 6,1 - - 29 16 46 25 WSW 1014,8 10 0,0
05.12.2019 18:00:00 9,3 6,1 - - 28 15 - - WSW 1015,2 10 0,0
05.12.2019 17:00:00 8,8 5,8 - - 22 12 - - WSW 1016,0 10 0,0
05.12.2019 16:00:00 7,9 5,4 - - 15 8 - - SW 1016,5 10 0,0
05.12.2019 15:00:00 7,7 5,5 - - 15 8 - - SW 1017,4 10 0,0
05.12.2019 14:00:00 7,6 5,3 - - 18 10 - - SW 1018,3 10 0,0
05.12.2019 13:00:00 6,6 5,1 - - 11 6 - - WSW 1019,2 8 0,0
05.12.2019 12:00:00 5,7 4,1 - - 8 4 - - WSW 1020,2 7 0,0

tt = Température de l'air
td = dewpoint
tt -20cm = Température de l'air -20cm
tt -100cm = Température de l'air -100cm
ff = Vitesse du vent
fx = gusts
dd = Direction du vent
ppp = reduced air pressure
vv = visibility
rr = Quantités de précipitations

stations d'obs. à proximité